GW5978 Weather Reports


time (UTC)temp
F
wind
direction
speed
knots
gust
knots
rain 1hr
in
rain 24hr
in
rain mn
in
humidity
%
barometer
mb
20260504151014 64 231 0.0 5.2 0.00 0.00 0.00 38 1012.5
20260504150514 62 268 2.6 8.7 0.00 0.00 0.00 38 1012.5
20260504141016 60 11 1.7 3.5 0.00 0.00 0.00 43 1012.5
20260504140514 60 204 1.7 3.5 0.00 0.00 0.00 43 1012.9
20260504130514 56 224 1.7 2.6 0.00 0.00 0.00 48 1013.2
20260504110514 44 232 0.0 2.6 0.00 0.00 0.00 70 1013.5
20260504100513 42 95 0.9 1.7 0.00 0.00 0.00 75 1013.2
20260504081514 45 136 0.9 1.7 0.00 0.00 0.00 68 1012.5
20260504081014 45 171 0.0 2.6 0.00 0.00 0.00 68 1012.5
20260504080514 45 356 0.0 2.6 0.00 0.00 0.00 67 1012.5
20260504050514 40 121 0.9 2.6 0.00 0.00 0.00 80 1011.9
20260504050016 40 94 0.0 2.6 0.00 0.00 0.00 80 1011.9
20260504045515 40 320 0.9 3.5 0.00 0.00 0.00 79 1011.9
20260504045014 40 230 1.7 2.6 0.00 0.00 0.00 79 1011.9
20260504044513 41 194 0.9 3.5 0.00 0.00 0.00 78 1011.9
20260504044013 41 5 1.7 2.6 0.00 0.00 0.00 78 1011.9
20260504043514 41 68 0.0 2.6 0.00 0.00 0.00 78 1011.9
20260504043013 41 57 0.0 2.6 0.00 0.00 0.00 77 1011.9
20260504042513 41 264 1.7 2.6 0.00 0.00 0.00 77 1011.9
20260504042013 41 350 1.7 2.6 0.00 0.00 0.00 76 1011.9
20260504041513 41 2 0.9 3.5 0.00 0.00 0.00 76 1011.9
20260504041014 41 288 1.7 4.3 0.00 0.00 0.00 76 1011.9
20260504040513 42 96 1.7 2.6 0.00 0.00 0.00 75 1011.9
20260504040013 42 154 2.6 3.5 0.00 0.00 0.00 75 1011.9
20260504035514 42 78 0.9 5.2 0.00 0.00 0.00 75 1011.9
20260504035013 42 253 0.0 2.6 0.00 0.00 0.00 75 1011.9
20260504034514 42 39 0.0 0.9 0.00 0.00 0.00 74 1011.9
20260504034013 42 353 0.0 2.6 0.00 0.00 0.00 73 1011.5
20260504033514 42 208 0.9 3.5 0.00 0.00 0.00 73 1011.9
20260504033013 42 184 1.7 2.6 0.00 0.00 0.00 73 1011.9
20260504032514 42 306 0.0 3.5 0.00 0.00 0.00 72 1011.5
20260504032013 43 33 2.6 4.3 0.00 0.00 0.00 71 1011.5
20260504031514 43 89 0.0 3.5 0.00 0.00 0.00 70 1011.9
20260504031015 43 94 0.0 2.6 0.00 0.00 0.00 70 1011.9
20260504030513 43 224 0.0 0.0 0.00 0.00 0.00 70 1011.5
20260504030013 43 147 0.0 0.0 0.00 0.00 0.00 70 1011.5
20260504025514 43 230 0.0 0.0 0.00 0.00 0.00 70 1011.5
20260504025013 43 230 0.0 0.0 0.00 0.00 0.00 70 1011.9
20260504024513 43 224 0.0 0.0 0.00 0.00 0.00 69 1011.5
20260504024013 44 224 0.0 0.0 0.00 0.00 0.00 69 1011.9
20260504023513 44 111 0.0 0.0 0.00 0.00 0.00 68 1011.9
20260504023013 44 111 0.0 0.0 0.00 0.00 0.00 68 1011.9
20260504022513 44 147 0.0 0.0 0.00 0.00 0.00 67 1011.9
20260504022014 44 63 0.0 0.0 0.00 0.00 0.00 65 1011.9
20260504021513 45 63 0.0 0.0 0.00 0.00 0.00 64 1011.5
20260504021014 45 63 0.0 0.0 0.00 0.00 0.00 64 1011.9
20260504020514 45 63 0.0 0.0 0.00 0.00 0.00 64 1011.9
20260504020014 46 37 0.0 0.0 0.00 0.00 0.00 64 1011.9
20260504015515 46 37 0.0 0.0 0.00 0.00 0.00 62 1011.9
20260504015013 46 166 0.0 0.0 0.00 0.00 0.00 61 1011.5
20260504014513 47 50 0.0 0.0 0.00 0.00 0.00 60 1011.5
20260504014013 47 117 0.0 0.0 0.00 0.00 0.00 59 1011.9
20260504013513 47 117 0.0 0.0 0.00 0.00 0.00 58 1011.5
20260504013014 48 117 0.0 0.0 0.00 0.00 0.00 58 1011.5
20260504012513 48 117 0.0 0.0 0.00 0.00 0.00 56 1011.5
20260504012014 49 230 0.0 0.0 0.00 0.00 0.00 53 1011.5
20260504011513 49 217 0.0 0.0 0.00 0.00 0.00 53 1011.5
20260504011014 49 50 0.0 0.0 0.00 0.00 0.00 51 1011.2
20260504010513 50 218 0.0 0.0 0.00 0.00 0.00 51 1011.2
20260504010014 50 142 0.0 0.0 0.00 0.00 0.00 50 1011.2
20260504005513 51 44 0.0 0.0 0.00 0.00 0.00 49 1011.2
20260504005013 51 44 0.0 0.0 0.00 0.00 0.00 47 1011.2
20260504004513 52 44 0.0 0.0 0.00 0.00 0.00 47 1011.2
20260504004013 53 44 0.0 0.0 0.00 0.00 0.00 44 1010.8
20260504003513 53 276 0.0 0.0 0.00 0.00 0.00 43 1010.8
20260504003015 53 315 0.0 0.0 0.00 0.00 0.00 42 1010.8
20260504002513 54 315 0.0 0.0 0.00 0.00 0.00 40 1010.5
20260504002013 54 297 0.0 0.9 0.00 0.00 0.00 40 1010.8
20260504001514 55 135 0.0 0.0 0.00 0.00 0.00 39 1010.5
20260504001013 55 176 0.0 0.0 0.00 0.00 0.00 37 1010.5
20260504000513 55 34 0.0 0.0 0.00 0.00 0.00 37 1010.2
20260504000013 56 184 0.9 1.7 0.00 0.00 0.00 36 1010.5
20260503235513 56 336 0.9 2.6 0.00 0.00 0.00 35 1010.2
20260503235013 56 174 0.9 1.7 0.00 0.00 0.00 36 1010.2
20260503234513 56 257 0.0 3.5 0.00 0.00 0.00 35 1010.2
20260503234014 56 191 0.0 1.7 0.00 0.00 0.00 36 1009.8
20260503233514 57 168 1.7 2.6 0.00 0.00 0.00 35 1009.8
20260503233013 57 197 0.0 1.7 0.00 0.00 0.00 33 1009.8
20260503232513 57 38 0.0 2.6 0.00 0.00 0.00 33 1009.8
20260503232015 57 335 0.9 4.3 0.00 0.00 0.00 33 1009.8
20260503231514 57 82 0.9 1.7 0.00 0.00 0.00 32 1009.8
20260503231014 57 160 0.0 1.7 0.00 0.00 0.00 32 1009.8
20260503230514 57 169 0.9 2.6 0.00 0.00 0.00 32 1009.5
20260503230014 57 172 0.0 3.5 0.00 0.00 0.00 31 1009.5
20260503225514 57 315 2.6 3.5 0.00 0.00 0.00 31 1009.5
20260503225013 57 180 0.0 3.5 0.00 0.00 0.00 30 1009.5
20260503224514 57 297 0.0 2.6 0.00 0.00 0.00 30 1009.8
20260503224014 57 18 0.9 4.3 0.00 0.00 0.00 30 1009.5
20260503223513 57 177 1.7 5.2 0.00 0.00 0.00 30 1009.5
20260503223014 58 185 0.0 6.1 0.00 0.00 0.00 30 1009.5
20260503222513 58 337 2.6 3.5 0.00 0.00 0.00 30 1009.5
20260503222013 58 64 3.5 6.1 0.00 0.00 0.00 30 1009.5
20260503221514 58 255 0.9 4.3 0.00 0.00 0.00 30 1009.5
20260503221014 58 148 1.7 5.2 0.00 0.00 0.00 30 1009.5
20260503220513 58 217 0.0 3.5 0.00 0.00 0.00 30 1009.5
20260503220013 59 175 3.5 4.3 0.00 0.00 0.00 29 1009.5
20260503215513 60 327 3.5 5.2 0.00 0.00 0.00 29 1009.5
20260503215013 59 299 0.9 5.2 0.00 0.00 0.00 29 1009.5
20260503214514 59 153 0.9 4.3 0.00 0.00 0.00 30 1009.5
20260503214013 59 25 0.9 5.2 0.00 0.00 0.00 30 1009.1
20260503213513 59 248 2.6 6.1 0.00 0.00 0.00 30 1009.5
20260503213014 59 184 0.9 2.6 0.00 0.00 0.00 30 1009.5
20260503212515 59 329 3.5 5.2 0.00 0.00 0.00 31 1009.5
20260503212014 59 333 1.7 4.3 0.00 0.00 0.00 31 1009.1
20260503211513 59 188 0.0 3.5 0.00 0.00 0.00 31 1009.5
20260503211013 59 183 3.5 3.5 0.00 0.00 0.00 33 1009.5
20260503210513 59 338 2.6 4.3 0.00 0.00 0.00 32 1009.5
20260503205652 58 186 1.7 3.5 0.00 0.00 0.00 33 1009.1
20260503205013 58 165 3.5 7.0 0.00 0.00 0.00 31 1009.5
20260503204513 58 173 1.7 6.1 0.00 0.00 0.00 31 1009.1
20260503204013 59 252 2.6 7.0 0.00 0.00 0.00 31 1009.1
20260503203514 58 135 0.9 4.3 0.00 0.00 0.00 32 1009.5
20260503203013 57 297 1.7 6.1 0.00 0.00 0.00 34 1009.5
20260503202513 56 265 0.0 5.2 0.00 0.00 0.00 34 1009.1
20260503202014 55 313 1.7 4.3 0.00 0.00 0.00 36 1009.1
20260503201514 57 339 2.6 4.3 0.00 0.00 0.00 35 1009.5
20260503201013 58 201 1.7 4.3 0.00 0.00 0.00 34 1009.1
20260503200513 56 194 1.7 4.3 0.00 0.00 0.00 36 1009.5
20260503200013 58 232 2.6 6.1 0.00 0.00 0.00 36 1009.5
20260503195513 58 316 0.9 6.1 0.00 0.00 0.00 35 1009.5
20260503195013 57 244 1.7 4.3 0.00 0.00 0.00 35 1009.5
20260503194514 57 197 0.9 5.2 0.00 0.00 0.00 34 1009.5
20260503194014 56 353 1.7 4.3 0.00 0.00 0.00 35 1009.5
20260503193514 55 214 2.6 4.3 0.00 0.00 0.00 36 1009.8
20260503193013 57 315 0.0 5.2 0.00 0.00 0.00 36 1009.5
20260503192514 57 128 3.5 7.8 0.00 0.00 0.00 36 1009.8
20260503192013 56 184 3.5 6.1 0.00 0.00 0.00 35 1009.8
20260503191514 57 316 3.5 7.0 0.00 0.00 0.00 36 1009.8
20260503191013 56 296 1.7 7.0 0.00 0.00 0.00 37 1009.8
20260503190513 55 332 0.0 4.3 0.00 0.00 0.00 36 1009.8
20260503190013 56 344 2.6 6.1 0.00 0.00 0.00 36 1009.8
20260503185513 55 329 2.6 4.3 0.00 0.00 0.00 38 1010.2
20260503185014 53 176 4.3 5.2 0.00 0.00 0.00 40 1009.8
20260503184514 53 337 3.5 4.3 0.00 0.00 0.00 40 1010.2
20260503184014 53 293 1.7 4.3 0.00 0.00 0.00 40 1009.8
20260503183513 53 214 1.7 6.1 0.00 0.00 0.00 39 1010.2
20260503183013 54 41 1.7 6.1 0.00 0.00 0.00 37 1010.5
20260503182514 54 314 3.5 8.7 0.00 0.00 0.00 40 1010.2
20260503182013 54 170 6.1 8.7 0.00 0.00 0.00 39 1009.8
20260503181515 56 234 2.6 7.0 0.00 0.00 0.00 37 1010.2
20260503181013 55 32 1.7 4.3 0.00 0.00 0.00 39 1009.8
20260503180514 54 334 2.6 2.6 0.00 0.00 0.00 40 1009.8
20260503180014 55 298 3.5 6.1 0.00 0.00 0.00 36 1010.2
20260503175513 53 181 2.6 7.0 0.00 0.00 0.00 37 1010.2
20260503175014 54 289 5.2 9.6 0.00 0.00 0.00 38 1010.2
20260503174515 55 330 5.2 7.0 0.00 0.00 0.00 37 1009.8
20260503174013 55 319 0.0 6.1 0.00 0.00 0.00 36 1010.2
20260503173513 54 358 2.6 5.2 0.00 0.00 0.00 38 1009.8
20260503173013 53 108 0.9 5.2 0.00 0.00 0.00 36 1010.2
20260503172514 53 316 1.7 5.2 0.00 0.00 0.00 36 1010.2
20260503172014 54 183 1.7 7.0 0.00 0.00 0.00 35 1009.8
20260503171513 52 338 4.3 7.0 0.00 0.00 0.00 38 1010.2
20260503171013 54 168 6.1 8.7 0.00 0.00 0.00 37 1009.8
20260503170514 53 172 0.0 4.3 0.00 0.00 0.00 36 1010.2